Weather History for Naples, FL

Change the Weather History Date:

Saturday, November 24, 2012

  Actual Average Record
Temperature  
Mean Temperature 62 °F 70 °F  
Max Temperature 74 °F 80 °F 88 °F (1973)
Min Temperature 50 °F 61 °F 40 °F (1975)
Degree Days  
Heating Degree Days 3 1  
Month to date heating degree days 7 5  
Since 1 July heating degree days 8 6  
Cooling Degree Days 0 6  
Month to date cooling degree days 101 190  
Year to date cooling degree days 3942 3785  
Growing Degree Days 12 (Base 50)    
Moisture  
Dew Point 55 °F    
Average Humidity 73    
Maximum Humidity 93    
Minimum Humidity 53    
Precipitation  
Precipitation 0.00 in 0.05 in 2.26 in (1977)
Month to date precipitation 0.12 1.70  
Year to date precipitation 36.15 50.10  
Snow  
Snow 0.00 in - - ()
Month to date snowfall 0.0  
Since 1 July snowfall 0.0  
Since 1 September snowfall 0.0  
Snow Depth 0.00 in    
Sea Level Pressure  
Sea Level Pressure 30.08 in    
Wind  
Wind Speed 6 mph (NW)    
Max Wind Speed 16 mph    
Max Gust Speed 21 mph    
Visibility 9 miles    
Events      
T = Trace of Precipitation, MM = Missing Value Source: NWS Daily Summary

Daily Weather History Graph

Daily Weather History Graph

Search for Another Location

Airport:

Trip Planner

Search our weather history database for the weather conditions in past years. The results will help you decide how hot, cold, wet, or windy it might be!

Date:

Astronomy

Nov. 24, 2012 Rise Set
Actual Time 6:52 AM EST 5:35 PM EST
Civil Twilight 6:27 AM EST 5:59 PM EST
Nautical Twilight 5:59 AM EST 6:28 PM EST
Astronomical Twilight 5:31 AM EST 6:55 PM EST
Moon 3:05 PM EST (11/24) 3:24 AM EST (11/24)
Length of Visible Light 11h 32m
Length of Day
10h 42m
Waxing Gibbous, 87% of the Moon is Illuminated
Nov 24
Waxing Gibbous
Nov 28
Full
Dec 6
Last Quarter
Dec 13
New
Dec 20
First Quarter

Hourly Weather History & Observations

Time (EST) Temp. Dew Point Humidity Pressure Visibility Wind Dir Wind Speed Gust Speed Precip Events Conditions
1:53 AM 55.9 °F 48.0 °F 75% 30.10 in 10.0 mi Calm Calm - N/A   Clear
2:53 AM 54.0 °F 48.9 °F 83% 30.09 in 10.0 mi North 3.5 mph - N/A   Clear
3:53 AM 55.9 °F 48.9 °F 77% 30.08 in 10.0 mi North 4.6 mph - N/A   Clear
4:53 AM 57.0 °F 48.9 °F 74% 30.08 in 10.0 mi NNW 3.5 mph - N/A   Clear
5:53 AM 51.1 °F 48.0 °F 89% 30.09 in 10.0 mi Calm Calm - N/A   Clear
6:53 AM 51.1 °F 48.9 °F 92% 30.10 in 7.0 mi Calm Calm - N/A   Clear
7:53 AM 54.0 °F 52.0 °F 93% 30.11 in 7.0 mi Calm Calm - N/A   Clear
8:53 AM 64.0 °F 55.9 °F 75% 30.12 in 9.0 mi Calm Calm - N/A   Clear
9:53 AM 70.0 °F 57.9 °F 65% 30.13 in 10.0 mi Calm Calm - N/A   Partly Cloudy
10:53 AM 72.0 °F 57.0 °F 59% 30.13 in 10.0 mi NNW 12.7 mph - N/A   Scattered Clouds
11:53 AM 71.1 °F 57.0 °F 61% 30.11 in 10.0 mi NNW 8.1 mph 20.7 mph N/A   Scattered Clouds
12:53 PM 72.0 °F 57.0 °F 59% 30.07 in 10.0 mi West 11.5 mph 18.4 mph N/A   Partly Cloudy
1:53 PM 73.0 °F 55.0 °F 53% 30.04 in 10.0 mi West 9.2 mph - N/A   Clear
2:53 PM 73.9 °F 55.0 °F 52% 30.03 in 10.0 mi WNW 9.2 mph - N/A   Clear
3:53 PM 72.0 °F 57.0 °F 59% 30.03 in 10.0 mi WNW 12.7 mph - N/A   Clear
4:53 PM 70.0 °F 57.9 °F 65% 30.03 in 10.0 mi WNW 9.2 mph - N/A   Clear
5:53 PM 66.9 °F 59.0 °F 76% 30.04 in 10.0 mi WNW 8.1 mph - N/A   Clear
6:53 PM 64.9 °F 60.1 °F 84% 30.06 in 10.0 mi WNW 5.8 mph - N/A   Clear
7:53 PM 66.0 °F 62.1 °F 87% 30.07 in 8.0 mi NW 8.1 mph - N/A   Clear
8:53 PM 64.9 °F 61.0 °F 87% 30.08 in 8.0 mi NNW 4.6 mph - N/A   Clear
9:53 PM 64.9 °F 61.0 °F 87% 30.09 in 8.0 mi NW 5.8 mph - N/A   Clear
10:53 PM 63.0 °F 60.1 °F 90% 30.10 in 7.0 mi NNW 5.8 mph - N/A   Clear
11:53 PM 60.1 °F 52.0 °F 75% 30.10 in 10.0 mi North 6.9 mph - N/A   Clear